Startseite
Über Mich
AHP4
Galerie
Sehschlangen
Tourenbuch
Bookmarks
Elektronik
Bewertung
Geschichten
[Tagesmessung] [Jahreswerte] [Information]

Messwerte vom 06.01.2022

Die letzten Messwerte von 23:58:46 Uhr:
KategorieMesswert
Temperatur [°C]0
Luftdruck [mBar]1001
Sonneneinstrahlung0
Wind [km/h]2 aus Südost
Niederschlag [l/m²]0
rel.Luftfeucht.94.1%
CO2 [ppm]512

Diagramme
Messwerte vom 06.01.2022
Tagesaggregation
KategorieMinimumMaximumSchnittSumme
Temperatur [°C]-261.0417
Luftdruck [mBar]9901003999.0333
Sonneneinstrahlung24064.6250
Wind [km/h]28
rF [%]86.496.695.35
Niederschlag [l/m²]0.2575
CO2 [ppm]400524431.5
Einordnung alsFrosttag
Kalter Tag

Messungen an benachbarten Tagen: Zur Jahresaggregation 2022
Tabelle aller Messwerte
UhrzeitTemperatur [°C]Luftdruck [mBar]SonneWind [km/h]RichtungRegen [l/m²]rF [%]CO2 [ppm]
00:01:48 2 990 0 4 NW 0 96.6 456
00:04:48 2 990 0 4 SW 0 96.6 460
00:07:48 2 990 0 9 SW 0 96.6 460
00:10:48 2 990 0 6 SW 0 96.6 454
00:13:45 2 991 0 4 W 0 96.6 450
00:16:45 2 990 0 13 S 0 96.6 448
00:19:49 2 990 0 5 S 0 96.6 451
00:22:49 2 991 0 20 W 0 96.6 440
00:25:48 3 990 0 13 NW 0 96.6 442
00:28:48 3 991 0 28 W 0 96.6 434
00:31:47 3 991 0 4 N 0 96.6 440
00:34:48 3 991 0 8 SW 0 96.6 445
00:37:47 3 991 0 10 NW 0 96.6 436
00:40:46 3 991 0 4 W 0 96.6 430
00:43:48 3 991 0 17 W 0 96.6 423
00:46:49 3 991 0 6 SW 0 96.6 424
00:49:46 3 991 0 3 NW 0 96.6 427
00:52:47 3 991 0 7 SW 0 96.6 430
00:55:45 3 991 0 4 SW 0 96.6 424
00:58:47 3 991 0 3 W 0 96.6 421
01:01:45 3 991 0 2 NW 0 96.6 421
01:04:48 3 991 0 8 SW 0 96.6 424
01:07:44 3 991 0 4 O 0 96.6 419
01:10:48 3 991 0 5 SW 0 96.6 416
01:13:47 3 991 0 6 NO 0.2575 96.6 407
01:16:46 3 991 0 22 W 0 96.6 413
01:19:45 3 991 0 5 S 0 96.6 415
01:22:50 3 991 0 2 S 0 96.6 422
01:25:46 3 991 0 8 SW 0 96.6 418
01:28:45 3 991 0 6 O 0 96.6 412
01:31:46 3 991 0 4 0 96.6 412
01:34:46 3 991 0 8 NW 0 96.6 415
01:37:46 3 991 0 10 SW 0 96.6 412
01:40:45 3 991 0 4 W 0 96.6 403
01:43:44 3 991 0 6 N 0 96.6 413
01:46:45 3 991 0 4 NW 0 96.6 412
01:49:47 3 991 0 3 NW 0 96.6 418
01:52:45 3 991 0 6 NW 0 96.6 415
01:55:46 3 991 0 8 W 0 96.6 404
01:58:48 3 991 0 6 W 0 96.6 406
02:01:48 2 992 0 6 SO 0 96.6 404
02:04:46 2 992 0 3 N 0 96.6 407
02:07:47 2 992 0 11 W 0 96.6 409
02:10:47 2 991 0 5 NO 0 96.6 406
02:13:45 2 992 0 8 W 0 96.6 407
02:16:47 2 991 0 4 W 0 96.6 404
02:19:48 2 992 0 7 NO 0 96.6 407
02:22:46 2 992 0 6 NO 0 96.6 407
02:25:46 2 992 0 6 NW 0 96.6 404
02:28:47 2 993 0 2 W 0 96.6 404
02:31:46 2 992 0 5 W 0 96.6 407
02:34:47 2 993 0 3 N 0 96.6 404
02:37:47 2 993 0 4 W 0 96.6 404
02:40:46 2 993 0 5 W 0 96.6 407
02:43:46 2 993 0 5 NO 0 96.6 404
02:46:49 2 994 0 11 NW 0 96.6 404
02:49:46 2 993 0 8 W 0 96.3 406
02:52:44 2 994 0 13 W 0 95.9 407
02:55:45 2 993 0 6 NW 0 94.6 404
02:58:45 1 995 0 9 W 0 94.2 406
03:01:45 1 994 0 7 0 93.4 404
03:04:45 1 994 0 3 NO 0 93.9 404
03:07:47 1 994 0 18 NW 0 94.2 406
03:10:46 1 994 0 9 NW 0 93.8 406
03:13:45 1 995 0 7 SW 0 94.3 404
03:16:47 1 994 0 8 N 0 93.7 406
03:19:46 1 995 0 4 NW 0 93.2 404
03:22:47 1 995 0 4 SO 0 93.7 405
03:25:47 1 995 0 10 NW 0 94.4 407
03:28:45 1 995 0 9 N 0 94.1 406
03:31:50 1 995 0 17 NW 0 94.2 404
03:34:48 1 995 0 5 NW 0 94.2 404
03:37:48 1 994 0 26 SW 0 94.2 407
03:40:48 1 995 0 16 NW 0 94.1 407
03:43:46 1 994 0 4 NO 0 94.3 404
03:46:46 1 995 0 6 W 0 94.2 401
03:49:45 1 995 0 10 W 0 94.1 407
03:52:48 0 995 0 14 NW 0 94.4 407
03:55:47 0 995 0 5 N 0 94.6 401
03:58:48 0 995 0 3 W 0 95.3 407
04:01:45 0 995 0 4 N 0 95.5 404
04:04:48 0 995 0 4 NW 0 95.8 405
04:07:45 0 995 0 1 O 0 96 404
04:10:48 0 995 0 4 NO 0 96.5 404
04:13:46 0 995 0 1 NW 0 96.6 404
04:16:45 0 995 0 8 W 0 96.6 404
04:19:46 0 995 0 5 W 0 96.6 404
04:22:46 0 995 0 4 W 0 96.6 404
04:25:46 -1 995 0 3 W 0 96.6 406
04:28:46 -1 995 0 2 O 0 96.6 404
04:31:48 -1 995 0 0 W 0 96.6 403
04:34:46 -1 995 0 0 SW 0 96.6 403
04:37:45 -1 995 0 0 W 0 96.6 403
04:40:44 -1 995 0 0 W 0 96.6 401
04:43:47 -1 995 0 1 NW 0 96.6 406
04:46:46 -1 995 0 2 W 0 96.6 407
04:49:45 -1 995 0 1 NO 0 96.6 404
04:52:45 -1 995 0 2 W 0 96.6 407
04:55:46 -2 995 0 2 W 0 96.6 404
04:58:45 -2 995 0 2 W 0 96.6 404
05:01:47 -2 995 0 1 SW 0 96.6 406
05:04:46 -2 995 0 0 SW 0 96.6 403
05:07:45 -2 995 0 1 SW 0 96.6 407
05:10:46 -2 995 0 3 S 0 96.6 404
05:13:47 -2 995 0 3 SW 0 96.6 407
05:16:45 -2 995 0 2 SW 0 96.6 407
05:19:48 -2 995 0 0 NW 0 96.6 406
05:22:48 -2 996 0 1 SW 0 96.6 407
05:25:45 -2 995 0 1 S 0 96.6 404
05:28:48 -2 996 0 2 SW 0 96.6 407
05:31:47 -2 996 0 2 S 0 96.6 407
05:34:48 -2 996 0 3 SW 0 96.6 404
05:37:45 -2 996 0 1 W 0 96.6 407
05:40:47 -2 996 0 3 S 0 96.6 404
05:43:48 -2 996 0 3 SW 0 96.6 404
05:46:45 -2 996 0 1 W 0 96.6 407
05:49:47 -2 996 0 2 SW 0 96.6 407
05:52:47 -2 996 0 1 SW 0 96.6 404
05:55:46 -2 997 0 0 N 0 96.6 407
05:58:45 -2 997 0 1 S 0 96.6 406
06:01:50 -2 997 0 0 NW 0 96.6 407
06:04:48 -2 997 0 1 NW 0 96.6 407
06:07:48 -2 997 0 6 SW 0 96.6 404
06:10:47 -2 996 0 0 SO 0 96.6 407
06:13:47 -2 997 0 0 SW 0 96.6 407
06:16:47 -2 998 0 1 N 0 96.6 401
06:19:46 -2 998 0 0 SO 0 96.6 407
06:22:48 -2 998 0 0 SO 0 96.6 406
06:25:46 -2 997 0 0 S 0 96.6 403
06:28:45 -2 997 0 1 S 0 96.6 404
06:31:49 -2 998 0 2 NW 0 96.6 406
06:34:45 -2 998 0 0 W 0 96.6 404
06:37:48 -2 998 0 0 SW 0 96.6 407
06:40:46 -2 998 0 0 SO 0 96.6 406
06:43:46 -2 998 0 0 SO 0 96.6 400
06:46:46 -2 998 0 1 W 0 96.6 404
06:49:47 -1 998 0 0 SW 0 96.6 404
06:52:46 -1 998 0 1 NW 0 96.6 401
06:55:46 -1 998 0 0 W 0 96.6 407
06:58:45 -1 998 0 0 SW 0 96.6 404
07:01:49 -1 998 0 3 SO 0 96.6 403
07:04:47 -1 998 0 0 NW 0 96.6 407
07:07:49 -1 998 0 2 SW 0 96.6 407
07:10:46 -1 998 0 0 SO 0 96.6 404
07:13:44 -1 998 0 0 S 0 96.6 407
07:16:46 -1 998 0 0 S 0 96.6 404
07:19:46 -1 998 0 2 W 0 96.6 407
07:22:45 -1 998 0 0 W 0 96.6 405
07:25:48 -1 998 0 1 SW 0 96.6 421
07:28:47 -1 998 0 0 SW 0 96.6 424
07:31:46 -1 998 0 1 W 0 96.6 419
07:34:46 -1 998 0 3 SW 0 96.6 424
07:37:48 -1 998 0 0 W 0 96.6 427
07:40:48 -1 998 0 2 W 0 96.6 430
07:43:45 -1 998 0 2 S 0 96.6 427
07:46:46 -1 998 0 1 SW 0 96.6 448
07:49:46 -1 998 0 1 W 0 96.6 451
07:52:49 -1 998 0 0 SW 0 96.6 451
07:55:46 -1 998 0 0 S 0 96.6 449
07:58:46 -1 998 4 0 W 0 96.6 454
08:01:47 -1 999 6 1 W 0 96.6 448
08:04:52 -1 998 10 2 SW 0 96.6 451
08:07:45 -1 998 14 1 W 0 96.6 451
08:10:47 -1 998 19 1 S 0 96.6 457
08:13:47 -1 998 25 1 SW 0 96.6 459
08:16:49 -1 998 33 1 SW 0 96.6 465
08:19:50 -1 999 40 0 SW 0 96.6 468
08:22:47 -1 998 49 0 S 0 96.6 466
08:25:47 -1 999 57 1 SW 0 96.6 462
08:28:49 -1 998 65 0 SW 0 96.6 454
08:31:47 -1 999 74 0 SW 0 96.6 456
08:34:47 -1 999 83 0 SW 0 96.6 462
08:37:48 -1 1000 92 0 S 0 96.6 462
08:40:48 -1 999 99 0 SW 0 96.6 456
08:43:50 -1 999 108 0 SW 0 96.6 454
08:46:46 -1 999 114 0 SW 0 96.6 450
08:49:47 -1 999 119 0 SW 0 96.6 462
08:52:46 -1 999 124 0 S 0 96.6 456
08:55:49 -1 999 129 0 SO 0 96.6 454
08:58:50 -1 999 135 0 SW 0 96.6 450
09:01:47 -1 999 141 1 W 0 96.6 454
09:04:47 -1 999 146 2 SW 0 96.6 457
09:07:49 -1 999 148 0 O 0 96.6 460
09:10:47 -1 999 156 2 W 0 96.6 453
09:13:49 -1 999 154 0 SO 0 96.6 452
09:16:48 -1 999 157 0 SO 0 96.6 454
09:19:47 -1 999 162 0 S 0 96.6 463
09:22:47 -1 1000 163 0 S 0 96.6 460
09:25:50 -1 999 166 0 W 0 96.6 468
09:28:47 -1 999 166 0 SO 0 96.6 462
09:31:48 0 999 168 0 NW 0 96.6 461
09:34:49 0 1000 170 0 SO 0 96.6 456
09:37:47 -1 999 171 0 S 0 96.6 462
09:40:49 -1 1000 171 1 NW 0 96.6 454
09:43:48 -1 1000 173 1 NO 0 96.6 459
09:46:48 -1 999 174 0 NO 0 96.6 459
09:49:47 -1 1000 173 0 SW 0 96.6 468
09:52:50 -1 1000 174 0 SW 0 96.6 471
09:55:49 -1 1000 176 0 SW 0 96.6 474
09:58:50 -1 1000 177 0 SW 0 96.6 477
10:01:49 -1 1001 119 0 SW 0 96.6 445
10:04:49 -1 1000 179 0 SW 0 96.6 407
10:07:48 -1 1000 179 1 SW 0 96.6 407
10:10:48 -1 1000 181 1 S 0 96.6 404
10:13:47 -1 1001 184 0 S 0 96.6 407
10:16:47 0 1001 184 0 O 0 96.6 407
10:19:47 0 1000 186 1 NO 0 96.6 404
10:22:49 0 1001 189 0 SO 0 96.6 406
10:25:47 0 1001 189 1 SO 0 96.6 407
10:28:47 0 1000 190 2 O 0 96.6 404
10:31:45 0 1001 191 1 S 0 96.6 404
10:34:49 0 1001 193 0 SW 0 96.6 406
10:37:48 0 1001 193 0 W 0 96.6 407
10:40:48 1 1000 194 3 W 0 96.6 407
10:43:46 1 1001 195 2 SO 0 96.6 406
10:46:49 1 1001 193 0 SO 0 96.6 406
10:49:49 1 1002 194 1 SO 0 96.6 407
10:52:48 1 1001 195 1 SW 0 96.6 406
10:55:46 1 1001 197 4 W 0 96.6 404
10:58:49 1 1000 204 3 NW 0 96.6 407
11:01:48 1 1001 209 3 SW 0 96.6 406
11:04:47 1 1001 210 4 W 0 96.6 404
11:07:49 2 1000 209 3 NW 0 96.6 407
11:10:48 2 1001 208 3 SW 0 96.6 405
11:13:46 2 1001 206 4 W 0 96.6 407
11:16:47 2 1001 206 7 SW 0 96.6 403
11:19:47 2 1001 209 3 S 0 96.6 404
11:22:50 2 1001 212 9 SW 0 96.6 407
11:25:48 2 1001 212 12 W 0 96.6 406
11:28:48 3 1000 209 3 NO 0 96.6 406
11:31:49 3 1001 204 5 W 0 96.6 404
11:34:48 3 1002 202 3 O 0 96.6 407
11:37:47 3 1001 195 4 W 0 96.6 404
11:40:48 3 1001 196 5 W 0 96.6 403
11:43:48 3 1000 196 6 NW 0 96.6 405
11:46:47 3 1001 196 1 W 0 96.6 407
11:49:47 3 1000 197 3 SW 0 96.6 407
11:52:47 3 1001 198 4 SW 0 96.6 406
11:55:47 3 1000 197 1 W 0 96.6 404
11:58:49 3 1000 198 5 S 0 96.6 404
12:01:49 3 1001 200 5 W 0 96.6 407
12:04:48 3 1001 198 1 SW 0 96.6 404
12:07:48 3 1001 205 14 W 0 96.6 404
12:10:52 3 1001 210 7 SW 0 95.1 408
12:13:45 3 1001 212 7 W 0 94.3 403
12:16:49 3 1002 211 3 SW 0 94 406
12:19:47 3 1002 209 10 W 0 94.7 407
12:22:48 3 1002 214 0 N 0 94.7 404
12:25:46 3 1001 206 2 W 0 95 407
12:28:46 3 1001 203 2 S 0 95.1 406
12:31:49 3 1001 206 1 W 0 94.1 404
12:34:48 3 1002 207 3 SW 0 94.7 412
12:37:48 3 1001 208 3 S 0 94.7 415
12:40:46 4 1001 206 6 W 0 94.8 418
12:43:48 4 1001 209 4 W 0 94.6 450
12:46:48 4 1002 203 5 W 0 94.4 406
12:49:48 4 1002 213 6 S 0 93.8 404
12:52:48 4 1001 215 3 NW 0 93.2 407
12:55:46 5 1001 212 8 W 0 91.9 404
12:58:48 5 1001 214 4 S 0 92.4 407
13:01:48 5 1001 214 4 NW 0 92.5 404
13:04:45 5 1001 215 4 W 0 90.6 404
13:07:48 5 1002 216 4 W 0 90.7 404
13:10:47 5 1002 217 5 W 0 90.1 407
13:13:48 5 1001 219 4 W 0 89.7 407
13:16:49 5 1002 219 8 SW 0 89.1 407
13:19:48 5 1001 219 4 SW 0 88.7 404
13:22:48 6 1001 219 5 SW 0 88.2 404
13:25:48 6 1002 220 6 W 0 87.7 407
13:28:47 6 1002 219 3 W 0 88.5 404
13:31:48 6 1001 220 3 W 0 88.3 404
13:34:48 6 1001 219 3 W 0 87.7 407
13:37:49 6 1001 221 3 NW 0 88.6 407
13:40:48 6 1001 220 1 SW 0 88.8 404
13:43:49 6 1001 219 1 NW 0 87.5 407
13:46:48 6 1001 220 2 SW 0 87 407
13:49:48 6 1001 219 0 NO 0 86.6 407
13:52:49 6 1001 220 2 SW 0 87.9 406
13:55:48 6 1001 221 1 S 0 88.8 404
13:58:48 6 1001 223 3 NW 0 86.9 410
14:01:48 6 1001 226 4 SW 0 86.4 403
14:04:48 6 1001 227 3 SW 0 87.7 410
14:07:47 6 1001 228 7 SW 0 87.6 413
14:10:48 6 1002 229 5 SW 0 87.1 416
14:13:45 6 1001 232 3 W 0 86.7 430
14:16:50 5 1001 239 4 S 0 87.1 428
14:19:49 5 1001 239 4 SW 0 87.5 428
14:22:48 5 1001 239 3 N 0 87.6 419
14:25:47 5 1001 240 9 S 0 87.6 417
14:28:48 5 1002 240 3 SW 0 88.4 414
14:31:49 5 1002 240 5 SW 0 88.6 413
14:34:47 4 1001 239 3 W 0 88 421
14:37:46 4 1001 238 6 W 0 88.1 427
14:40:49 4 1002 238 6 SW 0 88.7 433
14:43:48 4 1002 238 2 NW 0 89.1 442
14:46:49 4 1002 232 3 W 0 89.9 454
14:49:48 4 1002 239 3 SW 0 89.4 454
14:52:54 4 1002 236 2 SW 0 90.1 462
14:55:47 4 1002 226 9 SW 0 90.1 465
14:58:51 4 1002 207 2 W 0 90.8 471
15:01:49 4 1002 205 1 NW 0 90.9 466
15:04:47 4 1002 204 2 SW 0 91.1 469
15:07:48 4 1002 204 1 W 0 90.8 465
15:10:50 4 1002 203 7 NW 0 91 471
15:13:48 4 1002 199 0 SO 0 90.9 474
15:16:46 4 1002 198 5 W 0 90.9 477
15:19:48 3 1002 197 1 W 0 91.3 421
15:22:47 3 1002 196 1 O 0 91.6 471
15:25:47 3 1002 194 0 SO 0 91.9 478
15:28:49 3 1002 189 0 SW 0 92 483
15:31:48 3 1002 187 0 O 0 92.5 484
15:34:48 3 1002 190 0 NO 0 92.9 489
15:37:46 3 1002 190 3 S 0 93.2 489
15:40:48 3 1002 187 0 SO 0 94 483
15:43:47 3 1002 188 0 S 0 94.3 483
15:46:47 3 1002 184 1 N 0 94.5 474
15:49:49 2 1002 178 0 NW 0 94.6 477
15:52:48 2 1002 176 0 SO 0 94.6 457
15:55:47 2 1002 174 1 W 0 94.7 448
15:58:48 2 1002 167 1 N 0 94.8 457
16:01:48 2 1002 159 1 SW 0 94.8 463
16:04:49 2 1002 151 0 SW 0 95.3 468
16:07:49 2 1002 147 0 SO 0 95.4 478
16:10:49 2 1002 139 0 S 0 95.7 481
16:13:47 2 1002 120 2 SW 0 96 483
16:16:49 2 1002 113 0 W 0 96.1 480
16:19:47 2 1002 108 1 SW 0 96.1 486
16:22:49 2 1002 100 1 NW 0 96.2 489
16:25:46 2 1002 94 1 S 0 96.3 492
16:28:46 2 1002 85 0 S 0 96.3 498
16:31:48 2 1002 73 0 W 0 96.5 495
16:34:46 2 1002 61 0 S 0 96.6 497
16:37:45 2 1002 50 0 S 0 96.6 492
16:40:51 2 1002 39 10 SW 0 96.6 497
16:43:50 2 1002 29 1 SW 0 96.6 500
16:46:46 1 1002 20 1 S 0 96.6 500
16:49:47 1 1002 12 1 S 0 96.6 503
16:52:49 1 1002 7 0 S 0 96.6 509
16:55:45 1 1002 5 1 SW 0 96.6 512
16:58:46 1 1002 3 1 S 0 96.6 504
17:01:46 1 1002 0 0 O 0 96.6 501
17:04:47 1 1002 0 0 SO 0 96.6 500
17:07:49 1 1002 0 0 S 0 96.6 484
17:10:48 1 1002 0 0 SO 0 96.6 476
17:13:48 1 1002 0 0 SO 0 96.6 477
17:16:47 1 1002 0 0 SW 0 96.6 495
17:19:46 0 1002 0 0 SO 0 96.6 497
17:22:46 0 1002 0 0 SO 0 96.6 494
17:25:46 0 1002 0 0 SO 0 96.6 497
17:28:47 0 1002 0 0 SO 0 96.6 507
17:31:47 0 1002 0 0 SO 0 96.6 498
17:34:47 0 1002 0 0 SO 0 96.6 492
17:37:50 0 1003 0 0 SO 0 96.6 489
17:40:48 0 1002 0 0 SO 0 96.6 495
17:43:48 0 1002 0 0 SO 0 96.6 495
17:46:48 0 1002 0 0 S 0 96.6 501
17:49:45 0 1002 0 0 S 0 96.6 495
17:52:45 0 1002 0 0 S 0 96.6 495
17:55:45 0 1002 0 0 S 0 96.6 495
17:58:48 0 1002 0 0 NO 0 96.6 495
18:01:49 0 1002 0 0 NO 0 96.6 497
18:04:46 0 1002 0 0 NO 0 96.6 500
18:07:47 0 1002 0 0 SO 0 96.6 503
18:10:49 0 1002 0 0 SW 0 96.6 498
18:13:48 0 1002 0 0 SO 0 96.6 498
18:16:47 0 1002 0 0 SO 0 96.6 503
18:19:48 0 1002 0 0 SO 0 96.6 500
18:22:46 0 1002 0 0 S 0 96.6 497
18:25:46 0 1002 0 0 S 0 96.6 491
18:28:48 0 1002 0 0 S 0 96.6 471
18:31:47 0 1002 0 0 SO 0 96.6 424
18:34:49 0 1002 0 0 SO 0 96.6 425
18:37:48 0 1002 0 0 SO 0 96.6 445
18:40:51 0 1002 0 0 SO 0 96.6 448
18:43:48 0 1002 0 0 SO 0 96.6 443
18:46:49 0 1002 0 0 SO 0 96.6 431
18:49:49 0 1002 0 0 SO 0 96.6 430
18:52:47 0 1002 0 0 SO 0 96.6 433
18:55:46 0 1002 0 0 S 0 96.6 431
18:58:49 0 1002 0 0 SO 0 96.6 425
19:01:46 0 1002 0 0 SO 0 96.6 413
19:04:47 0 1002 0 0 SO 0 96.6 412
19:07:47 0 1002 0 0 SO 0 96.6 404
19:10:52 0 1002 0 0 SO 0 96.6 407
19:13:48 0 1002 0 0 SO 0 96.6 407
19:16:47 0 1002 0 0 SO 0 96.6 413
19:19:46 0 1002 0 0 SO 0 96.6 403
19:22:46 0 1002 0 0 SO 0 96.6 404
19:25:47 0 1002 0 0 NO 0 96.6 404
19:28:46 0 1002 0 0 S 0 96.6 405
19:31:48 0 1002 0 0 W 0 96.6 404
19:34:48 0 1002 0 0 SO 0 96.6 407
19:37:47 0 1002 0 0 S 0 96.6 407
19:40:45 0 1002 0 0 O 0 96.6 404
19:43:47 0 1002 0 1 S 0 96.6 404
19:46:46 0 1002 0 0 SO 0 96.6 407
19:49:47 0 1002 0 1 SW 0 96.6 404
19:52:46 0 1002 0 2 W 0 96.6 404
19:55:46 0 1002 0 1 SO 0 96.6 404
19:58:50 0 1002 0 2 W 0 96.6 407
20:01:46 0 1002 0 0 SW 0 96.6 406
20:04:47 0 1002 0 0 S 0 96.6 407
20:07:46 0 1002 0 3 S 0 96.6 406
20:10:49 1 1002 0 3 SO 0 96.6 407
20:13:45 1 1002 0 1 S 0 96.6 407
20:16:47 1 1002 0 6 S 0 96.6 407
20:19:47 0 1002 0 1 SW 0 96.6 404
20:22:48 0 1002 0 2 N 0 96.6 404
20:25:48 0 1002 0 3 O 0 96.6 407
20:28:48 0 1002 0 3 S 0 96.6 404
20:31:46 0 1002 0 5 S 0 96.6 404
20:34:46 0 1002 0 4 S 0 96.6 404
20:37:49 0 1002 0 2 SW 0 96.6 404
20:40:50 0 1002 0 1 SO 0 96.6 405
20:43:46 0 1002 0 1 SW 0 96.6 407
20:46:48 0 1002 0 1 S 0 96.6 404
20:49:47 0 1002 0 6 S 0 96.6 404
20:52:46 0 1002 0 5 S 0 96.6 404
20:55:46 0 1002 0 2 S 0 96.6 406
20:58:46 0 1002 0 2 S 0 96.6 407
21:01:47 0 1002 0 1 W 0 96.6 404
21:04:46 0 1002 0 2 S 0 96.6 404
21:07:46 0 1002 0 1 O 0 96.6 407
21:10:46 0 1002 0 2 S 0 96.6 406
21:13:47 0 1002 0 2 SW 0 96.6 407
21:16:46 0 1002 0 6 W 0 96.6 407
21:19:46 0 1002 0 3 S 0 96.6 407
21:22:45 1 1002 0 5 S 0 96.6 404
21:25:47 1 1002 0 3 S 0 96.6 407
21:28:45 0 1002 0 3 S 0 96.6 407
21:31:47 0 1002 0 4 SO 0 96.6 406
21:34:45 0 1002 0 3 S 0 96.6 404
21:37:47 0 1002 0 2 SO 0 96.6 406
21:40:52 0 1002 0 4 S 0 96.6 404
21:43:47 0 1002 0 4 S 0 96.6 404
21:46:47 1 1002 0 2 S 0 96.6 407
21:49:48 1 1002 0 3 SO 0 96.6 404
21:52:46 1 1002 0 4 W 0 96.6 406
21:55:44 1 1002 0 2 W 0 96.6 403
21:58:46 1 1002 0 2 SW 0 96.6 404
22:01:48 1 1002 0 3 SO 0 96.6 406
22:04:50 1 1002 0 2 SW 0 96.6 407
22:07:47 1 1002 0 4 SW 0 96.6 406
22:10:46 1 1002 0 2 SO 0 96.5 406
22:13:47 1 1002 0 1 SW 0 96.4 407
22:16:47 1 1002 0 2 SW 0 96.3 407
22:19:48 1 1002 0 2 SW 0 96.2 404
22:22:45 1 1002 0 2 O 0 96.2 404
22:25:46 1 1002 0 2 S 0 96.1 403
22:28:47 1 1002 0 4 O 0 96.1 406
22:31:48 1 1002 0 2 SW 0 96.1 404
22:34:48 1 1002 0 6 S 0 95.9 407
22:37:46 1 1002 0 4 S 0 95.6 404
22:40:46 1 1002 0 3 S 0 95.3 408
22:43:46 1 1002 0 4 S 0 94.9 406
22:46:47 1 1002 0 7 S 0 94.6 490
22:49:48 1 1002 0 5 SW 0 94.1 498
22:52:47 1 1002 0 3 SW 0 93.7 495
22:55:49 1 1002 0 6 SO 0 93.5 495
22:58:45 1 1002 0 4 S 0 93.4 497
23:01:46 1 1002 0 7 S 0 93.2 503
23:04:46 1 1002 0 5 S 0 93 507
23:07:46 1 1002 0 2 S 0 93 507
23:10:46 1 1002 0 3 S 0 93.1 509
23:13:46 1 1002 0 6 S 0 93.2 506
23:16:46 1 1002 0 3 SW 0 93.1 506
23:19:48 1 1002 0 5 W 0 92.8 504
23:22:49 1 1002 0 4 SW 0 92.6 509
23:25:48 1 1002 0 9 SO 0 92.5 508
23:28:48 1 1002 0 2 SO 0 92.4 510
23:31:47 1 1002 0 1 W 0 92.4 507
23:34:47 1 1002 0 6 S 0 92.5 510
23:37:48 1 1002 0 2 S 0 92.7 507
23:40:47 1 1002 0 3 S 0 92.9 513
23:43:47 1 1002 0 5 SO 0 93.1 517
23:46:46 1 1002 0 2 O 0 93.2 524
23:49:50 1 1002 0 2 SW 0 93.3 521
23:52:49 1 1002 0 3 S 0 93.6 521
23:55:45 0 1002 0 1 S 0 93.8 516
23:58:46 0 1001 0 2 SO 0 94.1 512

Letzte Änderung : 04-Jan-2022
Copyright Jens Köhler, Wolfsburg, Obere Dorfstraße 10d